Location: Newark
(40.9833°N, 0.0333°W)
Time: 02:24:55
(UTC+00:00)

deb Explorer IX - Pass Details

Date: 31 October 2020
Orbit: 537 x 1105 km, 38.8° (Epoch: 02 December)

Event Time Altitude Azimuth Distance (km) Brightness Sun altitude
Rises 05:46:50 0° 258° (WSW) 3,302 - -8.7°
Exits shadow 05:48:34 - 257° (WSW) 2,671 ? -8.4°
Reaches altitude 10° 05:49:10 10° 256° (WSW) 2,456 ? -8.3°
Maximum altitude 05:55:04 72° 173° (S) 988 ? -7.2°
Drops below altitude 10° 06:01:56 10° 91° (E) 2,832 ? -6.0°
Sets 06:04:48 0° 89° (E) 3,841 ? -5.4°
